{"data":{"norad_id":47546,"epoch":"2026-05-25T04:39:48.300192Z","epoch_age_seconds":48348,"freshness":"FRESH","line1":"1 47546U 21008A   26145.19430903 -.00000040  00000+0  24937-4 0  9997","line2":"2 47546  67.1513  40.9819 0005703 263.9116  96.1319 13.97020311270628","mean_motion":13.97020311,"eccentricity":0.0005703,"inclination_deg":67.1513,"raan_deg":40.9819,"arg_perigee_deg":263.9116,"mean_anomaly_deg":96.1319,"bstar":2.4937e-5,"rev_number":27062,"period_min":103.07652570701,"perigee_km":899.97853914146,"apogee_km":908.28469472593,"semimajor_km":7282.2686169337,"source":"CELESTRAK","updated_at":"2026-05-25T13:37:56.476080Z"}}